EW4447 Aplace IT current weather conditions

sailwx.info

Wind from 344 at 4 knots gusting 10

Air temperature 16.1° C
Dewpoint 0.2° C

Last reported at 2019-Dec-14 11:55 UTC.
Time now 2019-Dec-14 12:31 UTC

Location: N 41°36' E 012°51'.
View on Google Maps.

See reports from other nearby stations

  
Tides and Currents Weather Stations Pressure Air Temp Water Temp Dewpoint Dewpoint Depression Visibility Wind Speed Wind Dir Waves Ship Positions
date/time (UTC)wind fromknots sea level pressurealtimeterstation pressurevisibilityair tempwater tempwave heightnotes
2019-Dec-14 12:10 237 1 gusting 4 16.1
2019-Dec-14 12:05 004 1 gusting 9 16.1
2019-Dec-14 12:00 351 1 gusting 10 16.1
2019-Dec-14 11:55 344 4 gusting 10 16.1
2019-Dec-14 11:50 337 3 gusting 14 15.6
2019-Dec-14 11:45 339 3 gusting 14 15.6
2019-Dec-14 11:40 336 4 gusting 13 15.6
2019-Dec-14 11:35 328 4 gusting 15 15.6
2019-Dec-14 11:30 343 3 gusting 15 15.6
2019-Dec-14 11:25 345 3 gusting 12 15.6
2019-Dec-14 11:20 343 3 gusting 9 15.6
2019-Dec-14 11:15 343 1 gusting 13 15.0
2019-Dec-14 11:10 348 3 gusting 13 15.0
2019-Dec-14 11:05 344 5 gusting 13 15.0
2019-Dec-14 11:00 001 2 gusting 9 14.4
2019-Dec-14 10:55 013 2 gusting 9 14.4
2019-Dec-14 10:50 349 6 gusting 13 14.4
2019-Dec-14 10:45 347 5 gusting 13 14.4
2019-Dec-14 10:40 015 5 gusting 12 13.9
2019-Dec-14 10:35 026 3 gusting 13 13.9
2019-Dec-14 10:30 016 6 gusting 13 13.9
2019-Dec-14 10:25 011 5 gusting 9 13.9
2019-Dec-14 10:19 022 3 gusting 9 13.9
2019-Dec-14 10:15 359 3 gusting 8 13.9
2019-Dec-14 10:10 343 2 gusting 15 13.3
2019-Dec-14 10:05 355 3 gusting 18 13.3
2019-Dec-14 10:00 358 6 gusting 18 13.3
2019-Dec-14 09:55 008 7 gusting 18 13.3
2019-Dec-14 09:50 020 6 gusting 11 13.3
2019-Dec-14 09:45 353 3 gusting 11 12.8
2019-Dec-14 09:40 329 3 gusting 9 12.8
2019-Dec-14 09:35 320 3 gusting 11 12.8
2019-Dec-14 09:30 335 3 gusting 14 12.8
2019-Dec-14 09:25 337 2 gusting 14 12.8
2019-Dec-14 09:20 344 6 gusting 14 12.8
2019-Dec-14 09:05 325 9 gusting 19 12.2
2019-Dec-14 09:00 318 9 gusting 14 12.2
2019-Dec-14 08:55 315 9 gusting 17 11.7
2019-Dec-14 08:50 308 9 gusting 18 11.7
2019-Dec-14 08:45 308 13 gusting 18 11.7
2019-Dec-14 08:40 325 9 gusting 18 11.7
2019-Dec-14 08:35 324 9 gusting 13 11.1
2019-Dec-14 08:30 339 6 gusting 14 11.1
2019-Dec-14 08:25 352 6 gusting 14 10.6
2019-Dec-14 08:20 328 9 gusting 14 10.0
2019-Dec-14 08:15 329 11 gusting 14 10.0
2019-Dec-14 08:10 351 6 gusting 13 9.4
2019-Dec-14 08:05 334 6 gusting 13 9.4
2019-Dec-14 08:00 337 5 gusting 13 9.4
2019-Dec-14 07:55 009 6 gusting 16 8.9
2019-Dec-14 07:50 360 6 gusting 16 8.9
2019-Dec-14 07:45 349 6 gusting 14 8.3
2019-Dec-14 07:40 359 7 gusting 14 8.3
2019-Dec-14 07:35 353 6 gusting 13 7.8
2019-Dec-14 07:30 001 6 gusting 12 7.8
2019-Dec-14 07:25 003 5 gusting 10 7.2
2019-Dec-14 07:20 346 5 gusting 11 7.2
2019-Dec-14 07:15 359 5 gusting 15 7.2
2019-Dec-14 07:10 004 6 gusting 15 7.2
2019-Dec-14 07:05 003 6 gusting 14 7.2
2019-Dec-14 07:00 003 6 gusting 14 7.2
2019-Dec-14 06:55 016 8 gusting 14 7.2
2019-Dec-14 06:50 040 6 gusting 14 6.7
2019-Dec-14 06:45 035 6 gusting 13 6.7
2019-Dec-14 06:40 021 6 gusting 10 6.7
2019-Dec-14 06:35 013 2 gusting 9 6.7
2019-Dec-14 06:30 023 5 gusting 8 6.7
2019-Dec-14 06:25 029 3 gusting 9 6.7
2019-Dec-14 06:20 028 4 gusting 9 7.2
2019-Dec-14 06:15 018 6 gusting 9 6.7
2019-Dec-14 06:10 005 6 gusting 9 7.2
2019-Dec-14 06:05 019 3 gusting 12 7.2
2019-Dec-14 06:00 036 5 gusting 13 7.2
2019-Dec-14 05:55 043 8 gusting 13 6.7
2019-Dec-14 05:50 033 10 gusting 13 6.1
2019-Dec-14 05:45 024 10 gusting 13 6.1
2019-Dec-14 05:40 114 1 gusting 3 6.1
2019-Dec-14 05:35 134 0 gusting 3 6.1
2019-Dec-14 05:30 133 1 gusting 6 6.1
2019-Dec-14 05:25 160 1 gusting 6 5.6
2019-Dec-14 05:20 176 3 gusting 6 5.6
2019-Dec-14 05:15 162 1 gusting 6 5.6
2019-Dec-14 05:10 040 6.1
2019-Dec-14 05:05 037 1 gusting 6 5.6
2019-Dec-14 05:00 044 2 gusting 6 5.6
2019-Dec-14 04:55 064 0 gusting 6 5.6
2019-Dec-14 04:50 111 1 gusting 6 5.6
2019-Dec-14 04:45 148 3 gusting 6 5.6
2019-Dec-14 04:40 164 2 gusting 4 5.6
2019-Dec-14 04:35 157 2 gusting 6 5.6
2019-Dec-14 04:30 154 1 gusting 6 5.6
2019-Dec-14 04:25 151 3 gusting 4 6.1
2019-Dec-14 04:20 155 1 gusting 4 6.1
2019-Dec-14 04:15 123 2 gusting 6 6.7
2019-Dec-14 04:10 057 0 gusting 6 7.2
2019-Dec-14 04:05 028 1 gusting 19 7.8
2019-Dec-14 04:00 019 3 gusting 19 8.3
2019-Dec-14 03:55 348 3 gusting 18 8.9
2019-Dec-14 03:50 337 4 gusting 18 9.4
2019-Dec-14 03:45 330 6 gusting 19 9.4
2019-Dec-14 03:40 293 6 gusting 20 9.4
2019-Dec-14 03:35 289 7 gusting 20 9.4
2019-Dec-14 03:30 325 6 gusting 19 8.9
2019-Dec-14 03:25 322 8 gusting 13 7.8
2019-Dec-14 03:20 258 0 gusting 9 7.2
2019-Dec-14 03:15 273 3 gusting 9 7.8
2019-Dec-14 03:10 321 0 gusting 6 7.8
2019-Dec-14 03:05 305 1 gusting 6 8.3
2019-Dec-14 03:00 318 1 gusting 13 8.3
2019-Dec-14 02:55 339 1 gusting 13 8.3
2019-Dec-14 02:50 337 3 gusting 11 7.8
2019-Dec-14 02:45 314 3 gusting 11 7.2
2019-Dec-14 02:40 301 1 gusting 9 6.7
2019-Dec-14 02:35 296 1 gusting 9 6.7
2019-Dec-14 02:30 012 1 gusting 3 6.7
2019-Dec-14 02:25 069 0 gusting 3 6.7
2019-Dec-14 02:20 024 0 gusting 1 6.7
2019-Dec-14 02:15 304 6.7
2019-Dec-14 02:10 014 6.7
2019-Dec-14 02:05 041 6.7
2019-Dec-14 02:00 033 1 gusting 3 6.7
2019-Dec-14 01:55 032 2 gusting 3 6.7
2019-Dec-14 01:50 030 1 gusting 2 6.7
2019-Dec-14 01:45 033 0 gusting 3 7.2
2019-Dec-14 01:40 023 7.2
2019-Dec-14 01:35 023 1 gusting 6 7.2
2019-Dec-14 01:30 031 1 gusting 4 7.2
2019-Dec-14 01:25 008 1 gusting 4 7.2
2019-Dec-14 01:20 348 0 gusting 3 7.2
2019-Dec-14 01:15 305 7.2
2019-Dec-14 01:10 351 7.8
2019-Dec-14 01:05 004 2 gusting 8 7.8
2019-Dec-14 01:00 006 2 gusting 8 7.8
2019-Dec-14 00:55 020 3 gusting 8 7.8
2019-Dec-14 00:50 025 3 gusting 6 7.8
2019-Dec-14 00:45 010 1 gusting 5 7.8
2019-Dec-14 00:40 346 1 gusting 5 7.8
2019-Dec-14 00:35 308 7.8
2019-Dec-14 00:30 303 0 gusting 4 7.8
2019-Dec-14 00:25 307 7.8
2019-Dec-14 00:20 303 1 gusting 5 7.8
2019-Dec-14 00:15 284 0 gusting 7 7.8
2019-Dec-14 00:10 290 1 gusting 7 7.8
2019-Dec-14 00:05 304 5 gusting 7 7.8
2019-Dec-14 00:00 300 1 gusting 7 7.8
2019-Dec-13 23:55 324 1 gusting 7 7.8
2019-Dec-13 23:50 357 1 gusting 7 7.8
2019-Dec-13 23:45 353 3 gusting 8 7.8
2019-Dec-13 23:40 348 4 gusting 8 7.8
2019-Dec-13 23:35 347 3 gusting 6 7.8
2019-Dec-13 23:30 336 3 gusting 6 7.8
2019-Dec-13 23:25 323 4 gusting 7 8.3
2019-Dec-13 23:20 336 4 gusting 8 8.3
2019-Dec-13 23:15 354 2 gusting 8 8.3
2019-Dec-13 23:10 350 3 gusting 11 8.3
2019-Dec-13 23:05 339 2 gusting 11 8.3
2019-Dec-13 23:00 316 3 gusting 8 8.3
2019-Dec-13 22:55 323 3 gusting 9 8.3
2019-Dec-13 22:50 302 3 gusting 9 8.3
2019-Dec-13 22:45 320 6 gusting 9 8.9
2019-Dec-13 22:40 353 3 gusting 13 8.9
2019-Dec-13 22:35 353 3 gusting 13 8.9
2019-Dec-13 22:30 351 6 gusting 13 8.9
2019-Dec-13 22:25 335 6 gusting 13 9.4
2019-Dec-13 22:20 343 5 gusting 14 10.0
2019-Dec-13 22:15 339 5 gusting 26 10.6
2019-Dec-13 22:10 337 6 gusting 26 10.6
2019-Dec-13 22:05 326 13 gusting 25 10.6
2019-Dec-13 22:00 305 16 gusting 29 10.6
2019-Dec-13 21:55 298 15 gusting 29 10.6
2019-Dec-13 21:50 291 23 gusting 29 10.6
2019-Dec-13 21:45 289 13 gusting 19 10.6
2019-Dec-13 21:40 290 14 gusting 23 10.6
2019-Dec-13 21:35 292 13 gusting 23 10.6
2019-Dec-13 21:30 308 13 gusting 31 10.6
2019-Dec-13 21:25 311 15 gusting 31 10.6
2019-Dec-13 21:20 281 12 gusting 26 10.6
2019-Dec-13 21:15 271 16 gusting 26 10.6
2019-Dec-13 21:10 288 19 gusting 28 10.6
2019-Dec-13 21:05 290 19 gusting 36 10.6
2019-Dec-13 21:00 279 14 gusting 36 11.1
2019-Dec-13 20:55 280 18 gusting 31 11.1
2019-Dec-13 20:50 281 21 gusting 31 11.1
2019-Dec-13 20:45 281 15 gusting 31 11.1
2019-Dec-13 20:40 277 19 gusting 26 10.6
2019-Dec-13 20:35 276 17 gusting 26 10.6
2019-Dec-13 20:30 281 18 gusting 27 10.6
2019-Dec-13 20:25 256 13 gusting 27 10.6
2019-Dec-13 20:20 252 17 gusting 26 10.6
2019-Dec-13 20:15 275 15 gusting 26 10.6
2019-Dec-13 20:10 302 11 gusting 20 10.6
2019-Dec-13 20:05 319 10 gusting 20 10.6
2019-Dec-13 20:00 303 14 gusting 23 10.6
2019-Dec-13 19:55 292 13 gusting 23 11.1
2019-Dec-13 19:50 283 13 gusting 20 10.6
2019-Dec-13 19:45 280 15 gusting 22 10.6
2019-Dec-13 19:40 281 14 gusting 22 10.6
2019-Dec-13 19:35 273 13 gusting 19 11.1
2019-Dec-13 19:30 274 9 gusting 26 11.1
2019-Dec-13 19:25 274 12 gusting 26 11.1
2019-Dec-13 19:20 270 19 gusting 27 11.1
2019-Dec-13 19:15 272 21 gusting 27 11.1
2019-Dec-13 19:10 296 11 gusting 18 11.1
2019-Dec-13 19:05 304 14 gusting 30 11.1
2019-Dec-13 19:00 290 14 gusting 30 11.1
2019-Dec-13 18:55 279 19 gusting 30 11.1
2019-Dec-13 18:50 270 12 gusting 17 11.1
2019-Dec-13 18:45 284 6 gusting 15 11.1
2019-Dec-13 18:40 291 7 gusting 13 11.1
2019-Dec-13 18:35 275 9 gusting 13 11.1
2019-Dec-13 18:30 271 5 gusting 11 11.1
2019-Dec-13 18:25 328 9 gusting 19 11.7
2019-Dec-13 18:20 341 9 gusting 19 11.7
2019-Dec-13 18:15 288 12 gusting 19 11.7
2019-Dec-13 18:10 271 9 gusting 18 11.7
2019-Dec-13 18:05 270 8 gusting 18 11.7
2019-Dec-13 18:00 270 9 gusting 20 11.7
2019-Dec-13 17:55 273 11 gusting 20 11.7
2019-Dec-13 17:50 278 8 gusting 14 11.7
2019-Dec-13 17:45 283 7 gusting 13 11.1
2019-Dec-13 17:40 290 6 gusting 13 11.1
2019-Dec-13 17:35 296 6 gusting 10 11.1
2019-Dec-13 17:30 284 3 gusting 18 11.1
2019-Dec-13 17:25 273 5 gusting 26 11.7
2019-Dec-13 17:20 263 9 gusting 50 11.1
2019-Dec-13 17:15 263 18 gusting 50 10.6
2019-Dec-13 17:09 278 11 gusting 24 10.0
2019-Dec-13 17:05 282 6 gusting 26 10.0
2019-Dec-13 17:00 282 11 gusting 26 9.4
2019-Dec-13 16:55 270 19 gusting 26 8.9
2019-Dec-13 16:50 270 11 gusting 27 8.3
2019-Dec-13 16:44 270 11 gusting 27 10.6
2019-Dec-13 16:40 273 20 gusting 27 12.2
2019-Dec-13 16:35 279 13 gusting 28 14.4
2019-Dec-13 16:30 279 9 gusting 28 14.4
2019-Dec-13 16:25 268 14 gusting 41 14.4
2019-Dec-13 16:20 258 13 gusting 41 14.4
2019-Dec-13 16:15 247 15 gusting 32 14.4
2019-Dec-13 16:10 255 19 gusting 34 14.4
2019-Dec-13 16:05 263 21 gusting 34 14.4
2019-Dec-13 16:00 247 13 gusting 25 14.4
2019-Dec-13 15:55 237 14 gusting 21 14.4
2019-Dec-13 15:50 245 11 gusting 29 14.4
2019-Dec-13 15:45 253 13 gusting 29 14.4
2019-Dec-13 15:40 260 14 gusting 29 15.0
2019-Dec-13 15:35 254 12 gusting 30 15.0
2019-Dec-13 15:30 261 13 gusting 30 15.0
2019-Dec-13 15:25 266 15 gusting 30 15.0
2019-Dec-13 15:20 256 16 gusting 30 14.4
2019-Dec-13 15:15 253 11 gusting 30 14.4
2019-Dec-13 15:10 247 11 gusting 26 14.4
2019-Dec-13 15:05 239 9 gusting 22 13.9
2019-Dec-13 15:00 223 9 gusting 17 13.9
2019-Dec-13 14:55 221 7 gusting 17 13.9
2019-Dec-13 14:50 226 4 gusting 19 13.9
2019-Dec-13 14:45 221 6 gusting 19 13.9
2019-Dec-13 14:40 217 10 gusting 17 13.9
2019-Dec-13 14:35 207 5 gusting 18 13.9
2019-Dec-13 14:30 219 9 gusting 18 13.9
2019-Dec-13 14:25 231 7 gusting 19 13.3
2019-Dec-13 14:20 231 7 gusting 22 13.3
2019-Dec-13 14:15 223 4 gusting 22 13.3
2019-Dec-13 14:10 210 4 gusting 10 13.3
2019-Dec-13 14:05 190 4 gusting 16 13.3
2019-Dec-13 14:00 195 9 gusting 16 13.3
2019-Dec-13 13:55 203 6 gusting 14 13.3
2019-Dec-13 13:50 200 4 gusting 14 13.3
2019-Dec-13 13:45 197 6 gusting 12 13.3
2019-Dec-13 13:40 190 5 gusting 9 13.3
2019-Dec-13 13:35 200 2 gusting 11 13.3
2019-Dec-13 13:30 216 1 gusting 13 13.3
2019-Dec-13 13:25 217 6 gusting 13 12.8
2019-Dec-13 13:20 217 3 gusting 13 12.8
2019-Dec-13 13:15 223 3 gusting 17 12.2
2019-Dec-13 13:10 239 6 gusting 17 12.2
2019-Dec-13 13:05 268 1 gusting 7 12.2
2019-Dec-13 13:00 228 1 gusting 9 12.2
2019-Dec-13 12:55 200 3 gusting 9 11.7
2019-Dec-13 12:50 193 4 gusting 7 11.1
2019-Dec-13 12:45 165 1 gusting 6 11.1
2019-Dec-13 12:40 150 1 gusting 6 10.6
2019-Dec-13 12:35 172 2 gusting 3 10.6
2019-Dec-13 12:30 221 1 gusting 4 10.6
2019-Dec-13 12:25 179 1 gusting 6 10.0
2019-Dec-13 12:20 143 3 gusting 6 9.4
2019-Dec-13 12:15 008 0 gusting 4 8.9
2019-Dec-13 12:10 340 2 gusting 4 8.9
2019-Dec-13 12:05 308 8.9
2019-Dec-13 12:00 321 1 gusting 4 8.9
2019-Dec-13 11:55 293 2 gusting 10 8.9
2019-Dec-13 11:50 294 2 gusting 10 8.3
2019-Dec-13 11:45 287 1 gusting 12 8.3
2019-Dec-13 11:40 295 4 gusting 12 8.9
2019-Dec-13 11:35 023 6 gusting 7 8.9
2019-Dec-13 11:30 026 1 gusting 4 8.9
2019-Dec-13 11:25 352 0 gusting 6 9.4
2019-Dec-13 11:20 347 1 gusting 6 9.4
2019-Dec-13 11:15 353 9.4
2019-Dec-13 11:10 288 0 gusting 2 9.4
2019-Dec-13 11:05 323 9.4
2019-Dec-13 11:00 340 0 gusting 3 10.0
2019-Dec-13 10:55 327 1 gusting 3 10.0
2019-Dec-13 10:50 116 1 gusting 6 10.0
2019-Dec-13 10:45 127 10.0
2019-Dec-13 10:40 131 1 gusting 6 10.0
2019-Dec-13 10:35 131 2 gusting 10 10.0
2019-Dec-13 10:30 119 3 gusting 10 10.0
2019-Dec-13 10:25 137 6 gusting 10 9.4
2019-Dec-13 10:20 157 3 gusting 9 9.4
2019-Dec-13 10:15 144 4 gusting 10 9.4
2019-Dec-13 10:10 128 4 gusting 10 9.4
2019-Dec-13 10:05 125 5 gusting 9 9.4
2019-Dec-13 10:00 174 3 gusting 7 9.4
2019-Dec-13 09:55 225 1 gusting 3 9.4
2019-Dec-13 09:50 200 0 gusting 5 9.4
2019-Dec-13 09:45 154 1 gusting 9 9.4
2019-Dec-13 09:40 112 1 gusting 14 8.9
2019-Dec-13 09:35 100 6 gusting 14 8.9
2019-Dec-13 09:30 094 3 gusting 6 8.3
2019-Dec-13 09:25 098 1 gusting 6 8.3
2019-Dec-13 09:20 099 2 gusting 5 7.8
2019-Dec-13 09:15 332 1 gusting 3 7.8
2019-Dec-13 09:10 270 7.8
2019-Dec-13 09:05 174 0 gusting 6 7.2
2019-Dec-13 09:00 112 7.2
2019-Dec-13 08:55 055 4 gusting 6 6.7
2019-Dec-13 08:50 010 6.7
2019-Dec-13 08:45 335 1 gusting 2 6.1
2019-Dec-13 08:40 347 0 gusting 3 6.1
2019-Dec-13 08:35 337 0 gusting 6 6.1
2019-Dec-13 08:30 334 1 gusting 6 6.1
2019-Dec-13 08:25 010 1 gusting 3 6.1
2019-Dec-13 08:20 013 1 gusting 3 6.1
2019-Dec-13 08:15 010 1 gusting 3 6.1
2019-Dec-13 08:10 017 6.1
2019-Dec-13 08:05 359 1 gusting 3 6.1
2019-Dec-13 08:00 339 1 gusting 3 6.1
2019-Dec-13 07:55 352 1 gusting 3 6.1
2019-Dec-13 07:50 012 0 gusting 3 5.6
2019-Dec-13 07:45 013 5.6
2019-Dec-13 07:40 005 1 gusting 4 5.6
2019-Dec-13 07:35 351 0 gusting 3 5.6
2019-Dec-13 07:30 350 1 gusting 3 5.6
2019-Dec-13 07:25 358 1 gusting 3 5.0
2019-Dec-13 07:20 360 5.0
2019-Dec-13 07:15 360 1 gusting 3 5.6
2019-Dec-13 07:10 360 1 gusting 3 5.6
2019-Dec-13 07:05 360 1 gusting 3 5.6
2019-Dec-13 07:00 360 1 gusting 3 5.6
2019-Dec-13 06:55 002 0 gusting 3 5.0
2019-Dec-13 06:50 005 1 gusting 3 5.0
2019-Dec-13 06:45 007 1 gusting 3 5.6
2019-Dec-13 06:40 022 1 gusting 2 5.6
2019-Dec-13 06:35 151 5.6
2019-Dec-13 06:30 359 5.6
2019-Dec-13 06:25 360 5.6
2019-Dec-13 06:20 360 1 gusting 5 5.6
2019-Dec-13 06:15 360 0 gusting 5 5.0
2019-Dec-13 06:10 356 1 gusting 3 5.0
2019-Dec-13 06:05 353 1 gusting 3 5.0
2019-Dec-13 06:00 357 1 gusting 2 5.0
2019-Dec-13 05:55 360 1 gusting 3 5.0
2019-Dec-13 05:50 348 1 gusting 3 5.0
2019-Dec-13 05:45 347 0 gusting 3 5.0
2019-Dec-13 05:40 359 1 gusting 3 4.4
2019-Dec-13 05:35 360 0 gusting 4 4.4
2019-Dec-13 05:30 357 0 gusting 4 4.4
2019-Dec-13 05:25 354 0 gusting 4 4.4
2019-Dec-13 05:20 357 1 gusting 4 4.4
2019-Dec-13 05:15 360 1 gusting 4 4.4
2019-Dec-13 05:10 003 1 gusting 4 4.4
2019-Dec-13 05:05 004 1 gusting 3 4.4
2019-Dec-13 05:00 357 0 gusting 3 4.4
2019-Dec-13 04:55 355 4.4
2019-Dec-13 04:50 348 1 gusting 4 4.4
2019-Dec-13 04:45 333 0 gusting 3 3.9
2019-Dec-13 04:40 347 0 gusting 3 3.9
2019-Dec-13 04:35 354 1 gusting 4 3.9
2019-Dec-13 04:30 349 1 gusting 4 3.9
2019-Dec-13 04:25 354 2 gusting 4 3.3
2019-Dec-13 04:20 356 3.3
2019-Dec-13 04:15 002 2 gusting 6 3.3
2019-Dec-13 04:10 010 1 gusting 6 3.3
2019-Dec-13 04:05 007 2 gusting 6 3.3
2019-Dec-13 04:00 352 1 gusting 6 2.8
2019-Dec-13 03:55 345 0 gusting 6 2.8
2019-Dec-13 03:50 339 0 gusting 4 2.8
2019-Dec-13 03:45 347 1 gusting 4 2.8
2019-Dec-13 03:40 360 2.8
2019-Dec-13 03:35 340 1 gusting 4 3.3
2019-Dec-13 03:30 333 1 gusting 4 3.3
2019-Dec-13 03:25 323 1 gusting 3 3.3
2019-Dec-13 03:20 335 1 gusting 3 3.3
2019-Dec-13 03:15 360 1 gusting 3 3.3
2019-Dec-13 03:10 354 1 gusting 3 3.3
2019-Dec-13 03:05 354 3.3
2019-Dec-13 03:00 360 0 gusting 3 3.3
2019-Dec-13 02:55 358 3.3
2019-Dec-13 02:50 001 2.8
2019-Dec-13 02:45 001 1 gusting 3 2.8
2019-Dec-13 02:40 360 0 gusting 3 2.8
2019-Dec-13 02:35 360 2.8
2019-Dec-13 02:30 351 1 gusting 3 2.8
2019-Dec-13 02:25 315 1 gusting 3 2.8
2019-Dec-13 02:20 311 0 gusting 2 3.3
2019-Dec-13 02:15 350 3.3
2019-Dec-13 02:10 328 1 gusting 3 3.3
2019-Dec-13 02:05 283 1 gusting 4 3.3
2019-Dec-13 02:00 282 1 gusting 4 3.3
2019-Dec-13 01:55 344 1 gusting 3 3.3
2019-Dec-13 01:50 348 1 gusting 3 3.3
2019-Dec-13 01:45 320 0 gusting 2 3.3
2019-Dec-13 01:40 328 1 gusting 3 3.3
2019-Dec-13 01:35 339 1 gusting 3 3.3
2019-Dec-13 01:30 317 1 gusting 3 3.3
2019-Dec-13 01:25 310 1 gusting 2 3.3
2019-Dec-13 01:20 349 0 gusting 3 3.3
2019-Dec-13 01:15 356 1 gusting 3 3.3
2019-Dec-13 01:10 356 0 gusting 2 3.3
2019-Dec-13 01:05 360 0 gusting 2 3.3
2019-Dec-13 01:00 356 0 gusting 2 3.3
2019-Dec-13 00:55 352 3.3
2019-Dec-13 00:50 349 1 gusting 3 3.3
2019-Dec-13 00:45 350 1 gusting 3 3.3
2019-Dec-13 00:40 342 0 gusting 3 3.3
2019-Dec-13 00:35 330 0 gusting 3 3.3
2019-Dec-13 00:30 320 1 gusting 3 3.3
2019-Dec-13 00:25 328 1 gusting 2 3.3
2019-Dec-13 00:20 331 1 gusting 2 3.9
2019-Dec-13 00:15 305 1 gusting 3 3.3
2019-Dec-13 00:10 312 1 gusting 3 3.3
2019-Dec-13 00:05 309 1 gusting 3 3.3
2019-Dec-13 00:00 326 1 gusting 3 3.9
2019-Dec-12 23:55 331 0 gusting 3 3.9
2019-Dec-12 23:50 308 1 gusting 3 3.9
2019-Dec-12 23:45 332 1 gusting 3 4.4
2019-Dec-12 23:40 354 4.4
2019-Dec-12 23:35 353 1 gusting 3 4.4
2019-Dec-12 23:30 338 1 gusting 3 4.4
2019-Dec-12 23:25 338 1 gusting 4 4.4
2019-Dec-12 23:20 315 0 gusting 4 4.4
2019-Dec-12 23:15 312 2 gusting 4 4.4
2019-Dec-12 23:10 357 0 gusting 4 4.4
2019-Dec-12 23:05 360 2 gusting 4 4.4
2019-Dec-12 23:00 340 2 gusting 4 4.4
2019-Dec-12 22:55 306 2 gusting 3 4.4
2019-Dec-12 22:50 305 1 gusting 3 4.4
2019-Dec-12 22:45 315 1 gusting 3 4.4
2019-Dec-12 22:40 347 1 gusting 3 4.4
2019-Dec-12 22:35 348 1 gusting 3 4.4
2019-Dec-12 22:30 345 1 gusting 3 4.4
2019-Dec-12 22:25 345 4.4
2019-Dec-12 22:20 331 0 gusting 3 4.4
2019-Dec-12 22:15 317 1 gusting 3 3.9
2019-Dec-12 22:10 300 1 gusting 3 3.9
2019-Dec-12 22:05 299 4.4
2019-Dec-12 22:00 318 0 gusting 3 4.4
2019-Dec-12 21:55 333 0 gusting 3 4.4
2019-Dec-12 21:50 354 0 gusting 2 4.4
2019-Dec-12 21:45 358 1 gusting 3 5.0
2019-Dec-12 21:40 337 5.0
2019-Dec-12 21:35 299 1 gusting 1 5.0
2019-Dec-12 21:30 360 5.0
2019-Dec-12 21:25 360 5.6
2019-Dec-12 21:20 360 5.6
2019-Dec-12 21:15 360 5.6
2019-Dec-12 21:10 019 5.6
2019-Dec-12 21:05 021 1 gusting 2 6.1
2019-Dec-12 21:00 332 6.1
2019-Dec-12 20:55 288 0 gusting 1 6.7
2019-Dec-12 20:50 277 6.7
2019-Dec-12 20:45 333 7.2
2019-Dec-12 20:40 329 7.2
2019-Dec-12 20:35 351 7.2
2019-Dec-12 20:30 360 0 gusting 1 7.8
2019-Dec-12 20:25 180 7.8
2019-Dec-12 20:20 180 7.8
2019-Dec-12 20:15 7.8
2019-Dec-12 20:10 236 7.8
2019-Dec-12 20:05 223 7.8
2019-Dec-12 20:00 222 1 gusting 3 7.8
2019-Dec-12 19:55 192 0 gusting 6 7.8
2019-Dec-12 19:50 199 1 gusting 6 7.8
2019-Dec-12 19:45 330 2 gusting 6 7.8
2019-Dec-12 19:40 007 1 gusting 3 7.8
2019-Dec-12 19:35 358 0 gusting 3 7.2
2019-Dec-12 19:30 351 1 gusting 3 7.2
2019-Dec-12 19:25 347 0 gusting 3 7.2
2019-Dec-12 19:20 329 0 gusting 3 7.2
2019-Dec-12 19:15 320 1 gusting 3 7.2
2019-Dec-12 19:10 329 7.2
2019-Dec-12 19:05 338 1 gusting 3 7.2
2019-Dec-12 19:00 358 7.2
2019-Dec-12 18:55 343 1 gusting 3 6.7
2019-Dec-12 18:50 337 1 gusting 3 6.7
2019-Dec-12 18:45 347 0 gusting 3 6.7
2019-Dec-12 18:40 336 0 gusting 3 6.7
2019-Dec-12 18:35 291 1 gusting 3 6.7
2019-Dec-12 18:30 274 0 gusting 3 6.7
2019-Dec-12 18:25 297 1 gusting 4 6.7
2019-Dec-12 18:20 337 1 gusting 6 6.7
2019-Dec-12 18:15 355 3 gusting 6 6.1
2019-Dec-12 18:10 360 2 gusting 4 6.1
2019-Dec-12 18:05 352 1 gusting 3 6.1
2019-Dec-12 18:00 331 6.1
2019-Dec-12 17:55 295 1 gusting 3 6.7
2019-Dec-12 17:50 284 6.7
2019-Dec-12 17:45 298 0 gusting 2 7.2
2019-Dec-12 17:40 300 0 gusting 2 7.2
2019-Dec-12 17:35 278 7.2
2019-Dec-12 17:30 270 7.8
2019-Dec-12 17:25 270 0 gusting 3 7.8
2019-Dec-12 17:20 270 2 gusting 3 7.8
2019-Dec-12 17:15 270 1 gusting 2 7.8
2019-Dec-12 17:10 270 0 gusting 1 7.8
2019-Dec-12 17:05 270 7.8
2019-Dec-12 17:00 270 0 gusting 2 7.8
2019-Dec-12 16:55 277 7.8
2019-Dec-12 16:50 285 1 gusting 3 7.8
2019-Dec-12 16:45 311 0 gusting 3 7.8
2019-Dec-12 16:40 320 1 gusting 3 7.8
2019-Dec-12 16:35 301 1 gusting 3 7.8
2019-Dec-12 16:30 307 1 gusting 4 7.8
2019-Dec-12 16:25 317 2 gusting 4 7.8
2019-Dec-12 16:20 310 2 gusting 7 7.8
2019-Dec-12 16:15 313 2 gusting 7 7.8
2019-Dec-12 16:10 292 3 gusting 6 7.8
2019-Dec-12 16:05 291 6 gusting 6 7.8
2019-Dec-12 16:00 295 4 gusting 7 7.8
2019-Dec-12 15:55 277 4 gusting 9 7.8
2019-Dec-12 15:50 274 4 gusting 9 8.3
2019-Dec-12 15:45 292 4 gusting 7 8.3
2019-Dec-12 15:40 318 5 gusting 6 8.3
2019-Dec-12 15:35 320 1 gusting 9 8.3
2019-Dec-12 15:30 329 2 gusting 9 8.3
2019-Dec-12 15:25 329 4 gusting 9 8.3
2019-Dec-12 15:20 320 3 gusting 7 8.3
2019-Dec-12 15:15 329 3 gusting 7 8.3
2019-Dec-12 15:10 333 3 gusting 7 8.9
2019-Dec-12 15:05 341 3 gusting 8 8.9
2019-Dec-12 15:00 355 3 gusting 8 8.9
2019-Dec-12 14:55 359 3 gusting 7 8.9
2019-Dec-12 14:50 352 4 gusting 8 8.9
2019-Dec-12 14:45 338 3 gusting 9 8.9
2019-Dec-12 14:40 340 3 gusting 10 8.9
2019-Dec-12 14:35 351 6 gusting 13 8.9
2019-Dec-12 14:30 003 3 gusting 13 8.9
2019-Dec-12 14:25 003 6 gusting 12 8.9
2019-Dec-12 14:20 339 5 gusting 13 8.9
2019-Dec-12 14:15 350 6 gusting 13 8.3
2019-Dec-12 14:10 022 4 gusting 13 8.3
2019-Dec-12 14:05 018 6 gusting 14 7.8
2019-Dec-12 14:00 007 4 gusting 14 7.8
2019-Dec-12 13:55 360 3 gusting 14 7.8
2019-Dec-12 13:50 359 6 gusting 14 7.8
2019-Dec-12 13:45 005 6 gusting 14 7.8
2019-Dec-12 13:40 017 6 gusting 14 7.8
2019-Dec-12 13:35 030 4 gusting 12 8.3
2019-Dec-12 13:30 043 6 gusting 12 8.3
2019-Dec-12 13:25 002 6 gusting 12 8.3
2019-Dec-12 13:20 328 3 gusting 12 8.3
2019-Dec-12 13:15 311 5 gusting 14 8.9
2019-Dec-12 13:10 299 6 gusting 15 9.4
2019-Dec-12 13:05 296 8 gusting 21 10.6
2019-Dec-12 13:00 288 9 gusting 21 11.7
2019-Dec-12 12:55 230 5 gusting 7 12.2
2019-Dec-12 12:50 164 12.2
2019-Dec-12 12:45 173 1 gusting 4 12.8
2019-Dec-12 12:40 140 2 gusting 3 12.8
2019-Dec-12 12:35 039 13.3
2019-Dec-12 12:30 065 1 gusting 4 12.8
2019-Dec-12 12:25 063 0 gusting 3 12.8
2019-Dec-12 12:20 036 1 gusting 6 12.8
2019-Dec-12 12:15 022 3 gusting 6 12.8
2019-Dec-12 12:10 082 1 gusting 6 12.8
2019-Dec-12 12:05 122 0 gusting 6 12.2
2019-Dec-12 12:00 138 0 gusting 4 12.2